123  
ASUS45 KSLC 211010  
RWRUT  
 
UTAH REGIONAL WEATHER ROUNDUP  
NATIONAL WEATHER SERVICE SALT LAKE CITY UT  
400 AM MDT SUN JUL 21 2019  
 
UTZ001>011-023>025-211100-  
 
NORTHERN UTAH  
 
CITY SKY/WX TMP DP RH WIND PRES REMARKS
 
BRIGHAM CITY CLEAR 65 48 54 CALM 30.01R  
HILL AFB CLEAR 69 42 37 E7 30.03R  
LOGAN CLEAR 59 47 64 CALM 30.06R  
OGDEN CLEAR 69 42 37 S9 30.01R  
SALT LAKE CITY CLEAR 71 50 47 W6 29.99R  
TOOELE VALLEY CLEAR 64 45 48 S6 30.02R  
WENDOVER CLEAR 76 38 25 W7 30.01R  
HEBER CITY N/A 50 41 71 CALM 30.14S  
WEST JORDAN CLEAR 67 46 47 CALM 30.04R  
 

 
 
UTZ011>015-024>027-211100-  
 
CENTRAL/NORTHEAST UTAH  
 
CITY SKY/WX TMP DP RH WIND PRES REMARKS
 
PROVO AIRPORT CLEAR 68 45 43 E8 30.05R  
MOAB/CANYONLAN CLEAR 65 16 15 SW5 29.99R  
DELTA CLEAR 63 27 25 S9 30.04S  
PRICE CLEAR 63 32 31 N6 30.11R  
RICHFIELD CLEAR 55 43 62 CALM 30.10R  
ROOSEVELT CLEAR 59 45 58 W5 30.10R  
VERNAL CLEAR 71 40 32 N5 30.08R  
 

 
 
UTZ013>016-019>022-027-211100-  
 
SOUTHERN UTAH  
 
CITY SKY/WX TMP DP RH WIND PRES REMARKS
 
BRYCE CANYON CLEAR 46 28 49 CALM 30.30S  
CEDAR CITY CLEAR 65 31 28 S3 30.12S  
MILFORD CLEAR 58 29 33 SE8 30.07R  
ST GEORGE SUNNY 79 29 16 SE10 29.93S  
KANAB CLEAR 55 36 47 CALM 30.14S  
BLANDING N/A 59 30 33 NW7 30.19R  
 

 
 
REGIONAL REPORTS COLORADO/ARIZONA  
 
CITY SKY/WX TMP DP RH WIND PRES REMARKS
 
CRAIG, CO CLEAR 53 44 71 CALM 30.16R  
GRAND JUNCTION CLEAR 69 43 38 E16 30.04S  
RIFLE, CO CLEAR 57 48 72 E6 30.13S  
MONTROSE, CO CLEAR 57 38 48 E5 30.16R  
CORTEZ, CO CLEAR 54 34 46 NE6 30.14S  
COLORADO CITY N/A 55 32 41 SE6 30.12S  
PAGE, AZ CLEAR 81 30 15 W5 30.01S  
GRAND CANYON CLEAR 46 25 43 E3 30.25S  
KINGMAN, AZ CLEAR 74 27 17 S13 29.98S  
FLAGSTAFF, AZ CLEAR 53 31 42 SW3 30.27F  
 

 
 
REGIONAL REPORTS NEVADA/IDAHO/WYOMING  
 
CITY SKY/WX TMP DP RH WIND PRES REMARKS
 
LAS VEGAS, NV CLEAR 86 30 13 S7 29.82S  
ELY, NY CLEAR 60 27 28 S10 30.16R  
ELKO, NV CLEAR 60 40 47 NW5 30.06R  
POCATELLO, ID CLEAR 61 40 45 S5 30.09R  
BURLEY, ID CLEAR 56 44 64 CALM 30.05R  
EVANSTON, WY CLEAR 59 38 45 NE6 30.24R  
ROCK SPRINGS, CLEAR 61 34 36 SW6 30.21R  
KEMMERER, WY CLEAR 50 37 62 N10 30.26R  
 

 
 
 
CLICK HERE TO GO TO PREVIOUS BULLETINS.

The Nexlab UT Page Main Text Page